When you browse on this site, cookies collect data to enhance your experience and personalize the content and advertising you see.
Visit our Privacy Policy to learn more. By continuing to use the site, you agree to this use of cookies and data.
  • In Germany
  • List of Countries
  • For 7 days
  • Water Temperature
  • Weather Map
  • Weather Widgets
  • user-avatar
    Login

    Hourly Weather Dhaka

    Today, 28 January, Tuesday

    Time Temperature Precipitation Wind Pressure Humidity
    00:00 +16°C° 0 mm 0 mps 758 mmHg 62%
    01:00 +18°C° 0 mm 1 mps 758 mmHg 64%
    02:00 +16°C° 0 mm 1 mps 757 mmHg 65%
    03:00 +16°C° 0 mm 1 mps 757 mmHg 66%
    04:00 +16°C° 0 mm 1 mps 757 mmHg 67%
    05:00 +16°C° 0 mm 1 mps 757 mmHg 68%
    06:00 +15°C° 0 mm 2 mps 757 mmHg 69%
    07:00 +17°C° 0 mm 2 mps 758 mmHg 65%
    08:00 +18°C° 0 mm 2 mps 759 mmHg 60%
    09:00 +20°C° 0 mm 2 mps 760 mmHg 55%
    10:00 +23°C° 0 mm 1 mps 759 mmHg 49%
    11:00 +24°C° 0 mm 1 mps 759 mmHg 42%
    12:00 +26°C° 0 mm 1 mps 759 mmHg 36%
    13:00 +27°C° 0 mm 2 mps 758 mmHg 34%
    14:00 +27°C° 0 mm 2 mps 758 mmHg 32%
    15:00 +28°C° 0 mm 3 mps 757 mmHg 31%
    16:00 +26°C° 0 mm 2 mps 757 mmHg 34%
    17:00 +25°C° 0 mm 2 mps 757 mmHg 38%
    18:00 +23°C° 0 mm 1 mps 757 mmHg 42%
    19:00 +22°C° 0 mm 1 mps 758 mmHg 44%
    20:00 +22°C° 0 mm 1 mps 758 mmHg 46%
    21:00 +21°C° 0 mm 1 mps 759 mmHg 47%
    22:00 +21°C° 0 mm 1 mps 759 mmHg 50%
    23:00 +20°C° 0 mm 1 mps 759 mmHg 53%

    Tomorrow, 29 January, Wednesday

    Time Temperature Precipitation Wind Pressure Humidity
    00:00 +20°C° 0 mm 1 mps 759 mmHg 56%
    01:00 +19°C° 0 mm 1 mps 759 mmHg 59%
    02:00 +19°C° 0 mm 1 mps 759 mmHg 62%
    03:00 +18°C° 0 mm 1 mps 758 mmHg 66%
    04:00 +18°C° 0 mm 1 mps 759 mmHg 69%
    05:00 +18°C° 0 mm 1 mps 759 mmHg 71%
    06:00 +18°C° 0 mm 1 mps 759 mmHg 74%
    07:00 +19°C° 0 mm 1 mps 760 mmHg 70%
    08:00 +20°C° 0 mm 1 mps 761 mmHg 66%
    09:00 +21°C° 0 mm 2 mps 761 mmHg 62%
    10:00 +24°C° 0 mm 1 mps 761 mmHg 55%
    11:00 +25°C° 0 mm 1 mps 761 mmHg 47%
    12:00 +27°C° 0 mm 1 mps 761 mmHg 40%
    13:00 +28°C° 0 mm 1 mps 760 mmHg 38%
    14:00 +28°C° 0 mm 1 mps 759 mmHg 37%
    15:00 +29°C° 0 mm 1 mps 758 mmHg 36%
    16:00 +27°C° 0 mm 2 mps 758 mmHg 40%
    17:00 +26°C° 0 mm 2 mps 758 mmHg 44%
    18:00 +25°C° 0 mm 2 mps 757 mmHg 47%
    19:00 +24°C° 0 mm 2 mps 758 mmHg 48%
    20:00 +24°C° 0 mm 2 mps 758 mmHg 49%
    21:00 +23°C° 0 mm 2 mps 759 mmHg 49%
    22:00 +23°C° 0 mm 2 mps 759 mmHg 51%
    23:00 +22°C° 0 mm 1 mps 759 mmHg 53%

    Day after tomorrow, 30 January, Thursday

    Time Temperature Precipitation Wind Pressure Humidity
    00:00 +22°C° 0 mm 1 mps 759 mmHg 55%
    01:00 +22°C° 0 mm 1 mps 758 mmHg 55%
    02:00 +22°C° 0 mm 1 mps 758 mmHg 56%
    03:00 +22°C° 0 mm 1 mps 757 mmHg 57%
    04:00 +21°C° 0 mm 1 mps 757 mmHg 58%
    05:00 +21°C° 0 mm 1 mps 758 mmHg 58%
    06:00 +21°C° 0 mm 1 mps 758 mmHg 59%
    07:00 +22°C° 0.1 mm 1 mps 758 mmHg 57%
    08:00 +23°C° 0.1 mm 1 mps 759 mmHg 54%
    09:00 +24°C° 0.1 mm 1 mps 760 mmHg 51%
    10:00 +25°C° 0.1 mm 1 mps 759 mmHg 49%
    11:00 +27°C° 0.1 mm 1 mps 759 mmHg 47%
    12:00 +28°C° 0.1 mm 2 mps 759 mmHg 45%
    13:00 +28°C° 0 mm 2 mps 758 mmHg 44%
    14:00 +29°C° 0 mm 1 mps 757 mmHg 43%
    15:00 +30°C° 0 mm 1 mps 756 mmHg 42%
    16:00 +28°C° 0.1 mm 1 mps 756 mmHg 47%
    17:00 +27°C° 0.1 mm 2 mps 756 mmHg 51%
    18:00 +26°C° 0.1 mm 2 mps 756 mmHg 56%
    19:00 +24°C° 0.2 mm 2 mps 756 mmHg 62%
    20:00 +23°C° 0.2 mm 2 mps 757 mmHg 68%
    21:00 +21°C° 0.2 mm 2 mps 757 mmHg 73%
    22:00 +21°C° 0.3 mm 2 mps 757 mmHg 76%
    23:00 +22°C° 0.3 mm 1 mps 757 mmHg 79%

    31 January, Friday

    Time Temperature Precipitation Wind Pressure Humidity
    00:00 +21°C° 0.3 mm 1 mps 757 mmHg 82%
    01:00 +21°C° 0 mm 1 mps 757 mmHg 82%
    02:00 +21°C° 0 mm 1 mps 757 mmHg 82%
    03:00 +20°C° 0 mm 2 mps 757 mmHg 82%
    04:00 +20°C° 0 mm 1 mps 757 mmHg 82%
    05:00 +20°C° 0 mm 1 mps 757 mmHg 82%
    06:00 +19°C° 0 mm 1 mps 757 mmHg 81%
    07:00 +21°C° 0 mm 1 mps 758 mmHg 76%
    08:00 +22°C° 0 mm 1 mps 758 mmHg 72%
    09:00 +23°C° 0 mm 1 mps 759 mmHg 67%
    10:00 +25°C° 0 mm 1 mps 759 mmHg 56%
    11:00 +27°C° 0 mm 2 mps 759 mmHg 44%
    12:00 +28°C° 0 mm 3 mps 758 mmHg 33%
    13:00 +29°C° 0 mm 3 mps 758 mmHg 32%
    14:00 +29°C° 0 mm 4 mps 757 mmHg 30%
    15:00 +29°C° 0 mm 4 mps 757 mmHg 29%
    16:00 +28°C° 0 mm 4 mps 757 mmHg 32%
    17:00 +26°C° 0 mm 3 mps 757 mmHg 35%
    18:00 +25°C° 0 mm 2 mps 756 mmHg 38%
    19:00 +24°C° 0 mm 2 mps 757 mmHg 39%
    20:00 +23°C° 0 mm 2 mps 758 mmHg 40%
    21:00 +21°C° 0 mm 3 mps 758 mmHg 42%
    22:00 +20°C° 0 mm 2 mps 758 mmHg 41%
    23:00 +20°C° 0 mm 2 mps 758 mmHg 39%

    1 February, Saturday

    Time Temperature Precipitation Wind Pressure Humidity
    00:00 +20°C° 0 mm 1 mps 758 mmHg 38%
    01:00 +20°C° 0 mm 1 mps 758 mmHg 38%
    02:00 +19°C° 0 mm 1 mps 758 mmHg 38%
    03:00 +19°C° 0 mm 1 mps 758 mmHg 39%
    04:00 +18°C° 0 mm 1 mps 758 mmHg 39%
    05:00 +18°C° 0 mm 1 mps 758 mmHg 40%
    06:00 +18°C° 0 mm 1 mps 758 mmHg 41%
    07:00 +18°C° 0 mm 2 mps 759 mmHg 39%
    08:00 +20°C° 0 mm 2 mps 760 mmHg 37%
    09:00 +23°C° 0 mm 2 mps 760 mmHg 35%
    10:00 +24°C° 0 mm 2 mps 760 mmHg 31%
    11:00 +26°C° 0 mm 2 mps 760 mmHg 28%
    12:00 +28°C° 0 mm 2 mps 760 mmHg 25%
    13:00 +28°C° 0 mm 2 mps 759 mmHg 26%
    14:00 +29°C° 0 mm 3 mps 759 mmHg 26%
    15:00 +29°C° 0 mm 3 mps 758 mmHg 27%
    16:00 +27°C° 0 mm 3 mps 758 mmHg 30%
    17:00 +26°C° 0 mm 2 mps 758 mmHg 34%
    18:00 +24°C° 0 mm 2 mps 758 mmHg 38%
    19:00 +23°C° 0 mm 2 mps 758 mmHg 38%
    20:00 +23°C° 0 mm 2 mps 759 mmHg 39%
    21:00 +21°C° 0 mm 2 mps 759 mmHg 39%
    22:00 +21°C° 0 mm 2 mps 759 mmHg 39%
    23:00 +21°C° 0 mm 2 mps 759 mmHg 39%

    2 February, Sunday

    Time Temperature Precipitation Wind Pressure Humidity
    00:00 +20°C° 0 mm 2 mps 759 mmHg 40%
    01:00 +21°C° 0 mm 1 mps 759 mmHg 41%
    02:00 +21°C° 0 mm 1 mps 759 mmHg 42%
    03:00 +19°C° 0 mm 0 mps 759 mmHg 43%
    04:00 +21°C° 0 mm 1 mps 759 mmHg 43%
    05:00 +21°C° 0 mm 1 mps 759 mmHg 42%
    06:00 +21°C° 0 mm 1 mps 759 mmHg 42%
    07:00 +21°C° 0 mm 1 mps 760 mmHg 42%
    08:00 +22°C° 0 mm 1 mps 761 mmHg 42%
    09:00 +22°C° 0 mm 1 mps 761 mmHg 41%
    10:00 +24°C° 0 mm 2 mps 761 mmHg 38%
    11:00 +25°C° 0 mm 2 mps 761 mmHg 34%
    12:00 +26°C° 0 mm 2 mps 761 mmHg 31%
    13:00 +27°C° 0 mm 2 mps 761 mmHg 30%
    14:00 +27°C° 0 mm 3 mps 760 mmHg 29%
    15:00 +27°C° 0 mm 3 mps 759 mmHg 27%
    16:00 +26°C° 0 mm 3 mps 759 mmHg 30%
    17:00 +24°C° 0 mm 3 mps 759 mmHg 34%
    18:00 +22°C° 0 mm 3 mps 759 mmHg 37%
    19:00 +21°C° 0 mm 2 mps 759 mmHg 37%
    20:00 +20°C° 0 mm 2 mps 760 mmHg 38%
    21:00 +20°C° 0 mm 2 mps 760 mmHg 38%
    22:00 +19°C° 0 mm 2 mps 760 mmHg 39%
    23:00 +19°C° 0 mm 2 mps 760 mmHg 40%
    Show more